Terminal Aerodrome Forecast
Issued by NWS Billings, MT

Home | Current Version | Previous Version | Graphics & Text | Print | Product List | Glossary On
Versions: 1 2 3 4 5 6 7 8 9 10 11 12 13 14 15 16 17 18 19 20 21 22 23 24 25 26 27 28 29
000
FTUS45 KBYZ 302340
TAFMLS
TAF
KMLS 302340Z 3100/3124 VRB06KT P6SM -SHRA VCTS SCT080CB BKN100
     FM310100 24006KT P6SM FEW070 SCT100
     FM311200 26008KT P6SM VCSH BKN080
     FM311800 31011KT P6SM FEW080 SCT120=

USA.gov is the U.S. government's official web portal to all federal, state and local government web resources and services.